Time,TemperatureF,DewpointF,PressureIn,WindDirection,WindDirectionDegrees,WindSpeedMPH,WindSpeedGustMPH,Humidity,HourlyPrecipIn,Conditions,Clouds,dailyrainin,SolarRadiationWatts/m^2,SoftwareType,DateUTC
2013-08-24 00:01:00,59.0,51.8,30.14,NNE,18,0.0,0.0,77,0.00,,CLR,0.00,0.00,VWS V14.01,2013-08-24 04:01:00,
2013-08-24 00:06:00,58.7,51.5,30.15,NNE,18,0.0,0.0,77,0.00,,CLR,0.00,0.00,VWS V14.01,2013-08-24 04:06:00,
2013-08-24 00:11:00,58.4,51.6,30.15,NNE,18,0.0,0.0,78,0.00,,CLR,0.00,0.00,VWS V14.01,2013-08-24 04:11:00,
2013-08-24 00:16:00,58.2,51.7,30.15,NNE,18,0.0,0.0,79,0.00,,CLR,0.00,0.00,VWS V14.01,2013-08-24 04:16:00,
2013-08-24 00:21:00,58.0,51.5,30.15,NNE,18,0.0,1.0,79,0.00,,CLR,0.00,0.00,VWS V14.01,2013-08-24 04:21:00,
2013-08-24 00:26:00,57.9,51.8,30.16,NNE,18,0.0,1.0,80,0.00,,CLR,0.00,0.00,VWS V14.01,2013-08-24 04:26:00,
2013-08-24 00:31:00,57.8,51.3,30.16,NNE,18,0.0,0.0,79,0.00,,CLR,0.00,0.00,VWS V14.01,2013-08-24 04:31:00,
2013-08-24 00:36:00,57.6,51.5,30.16,NNE,18,0.0,0.0,80,0.00,,CLR,0.00,0.00,VWS V14.01,2013-08-24 04:36:00,
2013-08-24 00:41:00,57.4,51.3,30.16,NNE,18,0.0,0.0,80,0.00,,CLR,0.00,0.00,VWS V14.01,2013-08-24 04:41:00,
2013-08-24 00:46:00,57.2,51.1,30.16,NNE,18,0.0,0.0,80,0.00,,CLR,0.00,0.00,VWS V14.01,2013-08-24 04:46:00,
2013-08-24 00:51:00,57.0,51.2,30.17,NNE,18,0.0,0.0,81,0.00,,CLR,0.00,0.00,VWS V14.01,2013-08-24 04:51:00,
2013-08-24 00:56:00,56.8,51.0,30.17,NNE,18,0.0,0.0,81,0.00,,CLR,0.00,0.00,VWS V14.01,2013-08-24 04:56:00,
2013-08-24 01:01:00,56.7,50.9,30.17,NNE,18,0.0,0.0,81,0.00,,CLR,0.00,0.00,VWS V14.01,2013-08-24 05:01:00,
2013-08-24 01:06:00,56.6,50.8,30.17,NNE,18,0.0,0.0,81,0.00,,CLR,0.00,0.00,VWS V14.01,2013-08-24 05:06:00,
2013-08-24 01:11:00,56.5,50.8,30.17,NNE,18,0.0,0.0,81,0.00,,CLR,0.00,0.00,VWS V14.01,2013-08-24 05:11:00,
2013-08-24 01:16:00,56.4,51.0,30.17,NNE,18,0.0,0.0,82,0.00,,CLR,0.00,0.00,VWS V14.01,2013-08-24 05:16:00,
2013-08-24 01:21:00,56.4,51.0,30.17,NNE,18,0.0,0.0,82,0.00,,CLR,0.00,0.00,VWS V14.01,2013-08-24 05:21:00,
2013-08-24 01:26:00,56.3,50.9,30.17,NNE,18,0.0,0.0,82,0.00,,CLR,0.00,0.00,VWS V14.01,2013-08-24 05:26:00,
2013-08-24 01:31:00,56.2,50.8,30.17,NNE,18,0.0,0.0,82,0.00,,CLR,0.00,0.00,VWS V14.01,2013-08-24 05:31:00,
2013-08-24 01:36:00,56.2,50.8,30.17,NNE,18,0.0,0.0,82,0.00,,CLR,0.00,0.00,VWS V14.01,2013-08-24 05:36:00,
2013-08-24 01:41:00,56.0,50.6,30.17,NNE,18,0.0,1.0,82,0.00,,CLR,0.00,0.00,VWS V14.01,2013-08-24 05:41:00,
2013-08-24 01:46:00,55.9,50.8,30.17,NNE,18,0.0,1.0,83,0.00,,CLR,0.00,0.00,VWS V14.01,2013-08-24 05:46:00,
2013-08-24 01:51:00,55.7,50.6,30.17,NNE,18,0.0,0.0,83,0.00,,CLR,0.00,0.00,VWS V14.01,2013-08-24 05:51:00,
2013-08-24 01:56:00,55.5,50.4,30.17,NNE,18,0.0,0.0,83,0.00,,CLR,0.00,0.00,VWS V14.01,2013-08-24 05:56:00,
2013-08-24 02:01:00,55.4,50.7,30.18,NNE,18,0.0,0.0,84,0.00,,CLR,0.00,0.00,VWS V14.01,2013-08-24 06:01:00,
2013-08-24 02:06:00,55.2,50.5,30.18,NNE,18,0.0,0.0,84,0.00,,CLR,0.00,0.00,VWS V14.01,2013-08-24 06:06:00,
2013-08-24 02:11:00,55.0,50.6,30.18,NNE,18,0.0,0.0,85,0.00,,CLR,0.00,0.00,VWS V14.01,2013-08-24 06:11:00,
2013-08-24 02:16:00,54.8,50.4,30.18,NNE,18,0.0,0.0,85,0.00,,CLR,0.00,0.00,VWS V14.01,2013-08-24 06:16:00,
2013-08-24 02:21:00,54.8,50.4,30.18,NNE,18,0.0,0.0,85,0.00,,CLR,0.00,0.00,VWS V14.01,2013-08-24 06:21:00,
2013-08-24 02:26:00,54.7,50.3,30.18,NNE,18,0.0,0.0,85,0.00,,CLR,0.00,0.00,VWS V14.01,2013-08-24 06:26:00,
2013-08-24 02:31:00,54.6,50.5,30.18,NNE,18,0.0,0.0,86,0.00,,CLR,0.00,0.00,VWS V14.01,2013-08-24 06:31:00,
2013-08-24 02:36:00,54.5,50.4,30.18,NNE,18,0.0,0.0,86,0.00,,CLR,0.00,0.00,VWS V14.01,2013-08-24 06:36:00,
2013-08-24 02:41:00,54.4,50.3,30.19,NNE,18,0.0,0.0,86,0.00,,CLR,0.00,0.00,VWS V14.01,2013-08-24 06:41:00,
2013-08-24 02:46:00,54.3,50.2,30.19,NNE,18,0.0,0.0,86,0.00,,CLR,0.00,0.00,VWS V14.01,2013-08-24 06:46:00,
2013-08-24 02:51:00,54.3,50.2,30.19,NNE,18,0.0,0.0,86,0.00,,CLR,0.00,0.00,VWS V14.01,2013-08-24 06:51:00,
2013-08-24 02:56:00,54.2,50.1,30.19,NNE,18,0.0,1.0,86,0.00,,CLR,0.00,0.00,VWS V14.01,2013-08-24 06:56:00,
2013-08-24 03:01:00,54.2,50.1,30.19,NNE,18,0.0,0.0,86,0.00,,CLR,0.00,0.00,VWS V14.01,2013-08-24 07:01:00,
2013-08-24 03:06:00,54.2,50.4,30.19,NNE,18,0.0,0.0,87,0.00,,CLR,0.00,0.00,VWS V14.01,2013-08-24 07:06:00,
2013-08-24 03:11:00,54.1,50.3,30.19,NNE,18,0.0,0.0,87,0.00,,CLR,0.00,0.00,VWS V14.01,2013-08-24 07:11:00,
2013-08-24 03:16:00,54.1,50.3,30.19,NNE,18,0.0,0.0,87,0.00,,CLR,0.00,0.00,VWS V14.01,2013-08-24 07:16:00,
2013-08-24 03:21:00,54.0,50.2,30.19,NNE,18,0.0,0.0,87,0.00,,CLR,0.00,0.00,VWS V14.01,2013-08-24 07:21:00,
2013-08-24 03:26:00,54.0,50.2,30.20,NNE,18,0.0,1.0,87,0.00,,CLR,0.00,0.00,VWS V14.01,2013-08-24 07:26:00,
2013-08-24 03:31:00,53.9,50.1,30.20,NNE,18,0.0,0.0,87,0.00,,CLR,0.00,0.00,VWS V14.01,2013-08-24 07:31:00,
2013-08-24 03:36:00,53.9,50.1,30.20,NNE,18,0.0,1.0,87,0.00,,CLR,0.00,0.00,VWS V14.01,2013-08-24 07:36:00,
2013-08-24 03:41:00,53.8,50.0,30.20,NNE,18,0.0,0.0,87,0.00,,CLR,0.00,0.00,VWS V14.01,2013-08-24 07:41:00,
2013-08-24 03:46:00,53.7,50.2,30.20,NNE,18,0.0,0.0,88,0.00,,CLR,0.00,0.00,VWS V14.01,2013-08-24 07:46:00,
2013-08-24 03:51:00,53.6,50.1,30.20,NNE,18,0.0,0.0,88,0.00,,CLR,0.00,0.00,VWS V14.01,2013-08-24 07:51:00,
2013-08-24 03:56:00,53.5,50.0,30.20,NNE,18,0.0,0.0,88,0.00,,CLR,0.00,0.00,VWS V14.01,2013-08-24 07:56:00,
2013-08-24 04:01:00,53.5,50.0,30.21,NNE,18,0.0,0.0,88,0.00,,CLR,0.00,0.00,VWS V14.01,2013-08-24 08:01:00,
2013-08-24 04:06:00,53.4,49.9,30.21,NNE,18,0.0,0.0,88,0.00,,CLR,0.00,0.00,VWS V14.01,2013-08-24 08:06:00,
2013-08-24 04:11:00,53.3,49.8,30.21,NNE,18,0.0,0.0,88,0.00,,CLR,0.00,0.00,VWS V14.01,2013-08-24 08:11:00,
2013-08-24 04:17:00,53.2,49.7,30.22,NNE,18,0.0,1.0,88,0.00,,CLR,0.00,0.00,VWS V14.01,2013-08-24 08:17:00,
2013-08-24 04:22:00,53.1,49.7,30.22,NNE,18,0.0,0.0,88,0.00,,CLR,0.00,0.00,VWS V14.01,2013-08-24 08:22:00,
2013-08-24 04:27:00,53.0,49.8,30.22,NNE,18,0.0,0.0,89,0.00,,CLR,0.00,0.00,VWS V14.01,2013-08-24 08:27:00,
2013-08-24 04:32:00,53.0,49.8,30.22,NNE,18,0.0,0.0,89,0.00,,CLR,0.00,0.00,VWS V14.01,2013-08-24 08:32:00,
2013-08-24 04:37:00,52.8,49.7,30.22,NNE,18,0.0,0.0,89,0.00,,CLR,0.00,0.00,VWS V14.01,2013-08-24 08:37:00,
2013-08-24 04:42:00,52.6,49.5,30.22,NNE,18,0.0,0.0,89,0.00,,CLR,0.00,0.00,VWS V14.01,2013-08-24 08:42:00,
2013-08-24 04:47:00,52.4,49.3,30.23,NNE,18,0.0,0.0,89,0.00,,CLR,0.00,0.00,VWS V14.01,2013-08-24 08:47:00,
2013-08-24 04:52:00,52.3,49.5,30.23,NNE,18,0.0,0.0,90,0.00,,CLR,0.00,0.00,VWS V14.01,2013-08-24 08:52:00,
2013-08-24 04:57:00,52.2,49.4,30.23,NNE,18,0.0,0.0,90,0.00,,CLR,0.00,0.00,VWS V14.01,2013-08-24 08:57:00,
2013-08-24 05:02:00,52.1,49.3,30.24,NNE,18,0.0,0.0,90,0.00,,CLR,0.00,0.00,VWS V14.01,2013-08-24 09:02:00,
2013-08-24 05:07:00,52.1,49.3,30.24,NNE,18,0.0,0.0,90,0.00,,CLR,0.00,0.00,VWS V14.01,2013-08-24 09:07:00,
2013-08-24 05:12:00,51.9,49.4,30.24,NNE,18,0.0,0.0,91,0.00,,CLR,0.00,0.00,VWS V14.01,2013-08-24 09:12:00,
2013-08-24 05:17:00,51.8,49.3,30.24,NNE,18,0.0,0.0,91,0.00,,CLR,0.00,0.00,VWS V14.01,2013-08-24 09:17:00,
2013-08-24 05:22:00,51.7,49.2,30.25,NNE,18,0.0,0.0,91,0.00,,CLR,0.00,0.00,VWS V14.01,2013-08-24 09:22:00,
2013-08-24 05:27:00,51.6,49.1,30.25,NNE,18,0.0,0.0,91,0.00,,CLR,0.00,0.00,VWS V14.01,2013-08-24 09:27:00,
2013-08-24 05:32:00,51.4,48.9,30.25,NNE,18,0.0,0.0,91,0.00,,CLR,0.00,0.00,VWS V14.01,2013-08-24 09:32:00,
2013-08-24 05:37:00,51.4,49.2,30.25,NNE,18,0.0,0.0,92,0.00,,CLR,0.00,0.00,VWS V14.01,2013-08-24 09:37:00,
2013-08-24 05:42:00,51.4,49.2,30.25,NNE,18,0.0,0.0,92,0.00,,CLR,0.00,0.00,VWS V14.01,2013-08-24 09:42:00,
2013-08-24 05:47:00,51.3,49.1,30.25,NNE,18,0.0,0.0,92,0.00,,CLR,0.00,0.00,VWS V14.01,2013-08-24 09:47:00,
2013-08-24 05:52:00,51.3,49.1,30.25,NNE,18,0.0,0.0,92,0.00,,CLR,0.00,0.00,VWS V14.01,2013-08-24 09:52:00,
2013-08-24 05:57:00,51.2,49.0,30.26,NNE,18,0.0,0.0,92,0.00,,CLR,0.00,0.00,VWS V14.01,2013-08-24 09:57:00,
2013-08-24 06:02:00,51.1,48.9,30.26,NNE,18,0.0,0.0,92,0.00,,CLR,0.00,0.00,VWS V14.01,2013-08-24 10:02:00,
2013-08-24 06:07:00,51.1,48.9,30.26,NNE,18,0.0,0.0,92,0.00,,CLR,0.00,0.00,VWS V14.01,2013-08-24 10:07:00,
2013-08-24 06:12:00,51.0,48.8,30.26,NNE,18,0.0,0.0,92,0.00,,CLR,0.00,5.00,VWS V14.01,2013-08-24 10:12:00,
2013-08-24 06:17:00,51.0,48.8,30.27,NE,47,0.0,3.0,92,0.00,,CLR,0.00,7.00,VWS V14.01,2013-08-24 10:17:00,
2013-08-24 06:22:00,50.9,49.0,30.27,NE,47,0.0,0.0,93,0.00,,CLR,0.00,9.00,VWS V14.01,2013-08-24 10:22:00,
2013-08-24 06:27:00,50.9,49.0,30.28,NE,47,0.0,0.0,93,0.00,,CLR,0.00,12.00,VWS V14.01,2013-08-24 10:27:00,
2013-08-24 06:32:00,51.0,49.0,30.28,NE,47,0.0,0.0,93,0.00,,CLR,0.00,14.00,VWS V14.01,2013-08-24 10:32:00,
2013-08-24 06:37:00,51.0,49.0,30.28,NE,47,0.0,0.0,93,0.00,,CLR,0.00,16.00,VWS V14.01,2013-08-24 10:37:00,
2013-08-24 06:42:00,51.1,49.2,30.28,NE,47,0.0,0.0,93,0.00,,CLR,0.00,18.00,VWS V14.01,2013-08-24 10:42:00,
2013-08-24 06:47:00,51.2,49.2,30.28,NE,47,0.0,0.0,93,0.00,,CLR,0.00,19.00,VWS V14.01,2013-08-24 10:47:00,
2013-08-24 06:52:00,51.4,49.5,30.28,NE,47,0.0,0.0,93,0.00,,CLR,0.00,23.00,VWS V14.01,2013-08-24 10:52:00,
2013-08-24 06:57:00,51.6,49.4,30.28,NE,47,0.0,0.0,92,0.00,,CLR,0.00,33.00,VWS V14.01,2013-08-24 10:57:00,
2013-08-24 07:02:00,51.8,49.5,30.28,NE,47,0.0,2.0,92,0.00,,CLR,0.00,46.00,VWS V14.01,2013-08-24 11:02:00,
2013-08-24 07:07:00,52.2,50.0,30.29,NNE,32,0.0,2.0,92,0.00,,CLR,0.00,67.00,VWS V14.01,2013-08-24 11:07:00,
2013-08-24 07:12:00,52.4,49.8,30.29,NNE,31,0.0,1.0,91,0.00,,CLR,0.00,54.00,VWS V14.01,2013-08-24 11:12:00,
2013-08-24 07:17:00,52.9,50.3,30.29,NE,49,0.0,3.0,91,0.00,,CLR,0.00,142.00,VWS V14.01,2013-08-24 11:17:00,
2013-08-24 07:22:00,53.7,50.8,30.29,NE,48,0.0,3.0,90,0.00,,CLR,0.00,223.00,VWS V14.01,2013-08-24 11:22:00,
2013-08-24 07:27:00,54.6,51.1,30.29,NNW,338,0.0,3.0,88,0.00,,CLR,0.00,244.00,VWS V14.01,2013-08-24 11:27:00,
2013-08-24 07:32:00,55.6,51.8,30.29,NNE,26,2.0,3.0,87,0.00,,CLR,0.00,267.00,VWS V14.01,2013-08-24 11:32:00,
2013-08-24 07:37:00,56.6,51.8,30.29,NE,43,0.0,3.0,84,0.00,,CLR,0.00,287.00,VWS V14.01,2013-08-24 11:37:00,
2013-08-24 07:42:00,57.4,52.0,30.29,NE,36,0.0,2.0,82,0.00,,CLR,0.00,302.00,VWS V14.01,2013-08-24 11:42:00,
2013-08-24 07:47:00,58.0,52.5,30.30,NNE,18,0.0,4.0,82,0.00,,CLR,0.00,322.00,VWS V14.01,2013-08-24 11:47:00,
2013-08-24 07:52:00,58.5,52.7,30.30,NNE,29,2.0,2.0,81,0.00,,CLR,0.00,339.00,VWS V14.01,2013-08-24 11:52:00,
2013-08-24 07:57:00,59.0,52.8,30.30,NNE,26,0.0,4.0,80,0.00,,CLR,0.00,248.00,VWS V14.01,2013-08-24 11:57:00,
2013-08-24 08:02:00,59.0,52.5,30.30,NNE,23,0.0,2.0,79,0.00,,CLR,0.00,105.00,VWS V14.01,2013-08-24 12:02:00,
2013-08-24 08:07:00,59.0,52.5,30.30,NW,319,0.0,3.0,79,0.00,,CLR,0.00,137.00,VWS V14.01,2013-08-24 12:07:00,
2013-08-24 08:13:00,59.0,52.8,30.30,NE,42,0.0,3.0,80,0.00,,CLR,0.00,186.00,VWS V14.01,2013-08-24 12:13:00,
2013-08-24 08:18:00,59.0,52.8,30.31,NE,36,0.0,3.0,80,0.00,,CLR,0.00,74.00,VWS V14.01,2013-08-24 12:18:00,
2013-08-24 08:23:00,59.4,52.9,30.31,NE,36,0.0,1.0,79,0.00,,CLR,0.00,116.00,VWS V14.01,2013-08-24 12:23:00,
2013-08-24 08:28:00,59.5,53.0,30.31,North,5,0.0,3.0,79,0.00,,CLR,0.00,60.00,VWS V14.01,2013-08-24 12:28:00,
2013-08-24 08:33:00,59.6,53.1,30.31,NNE,19,0.0,3.0,79,0.00,,CLR,0.00,63.00,VWS V14.01,2013-08-24 12:33:00,
2013-08-24 08:38:00,59.8,53.6,30.31,NNE,19,0.0,3.0,80,0.00,,CLR,0.00,70.00,VWS V14.01,2013-08-24 12:38:00,
2013-08-24 08:43:00,60.2,54.0,30.31,NNE,18,1.0,2.0,80,0.00,,CLR,0.00,72.00,VWS V14.01,2013-08-24 12:43:00,
2013-08-24 08:48:00,60.6,53.7,30.31,NNE,29,0.0,3.0,78,0.00,,CLR,0.00,90.00,VWS V14.01,2013-08-24 12:48:00,
2013-08-24 08:53:00,61.0,54.1,30.31,NNE,28,0.0,1.0,78,0.00,,CLR,0.00,86.00,VWS V14.01,2013-08-24 12:53:00,
2013-08-24 08:58:00,61.6,54.3,30.31,NNE,28,2.0,3.0,77,0.00,,CLR,0.00,91.00,VWS V14.01,2013-08-24 12:58:00,
2013-08-24 09:03:00,62.1,54.5,30.31,NW,311,0.0,3.0,76,0.00,,CLR,0.00,93.00,VWS V14.01,2013-08-24 13:03:00,
2013-08-24 09:08:00,63.1,53.6,30.31,NE,49,3.0,5.0,71,0.00,,CLR,0.00,111.00,VWS V14.01,2013-08-24 13:08:00,
2013-08-24 09:13:00,63.8,53.0,30.31,NNW,327,1.0,5.0,68,0.00,,CLR,0.00,606.00,VWS V14.01,2013-08-24 13:13:00,
2013-08-24 09:18:00,64.4,52.4,30.31,NE,53,1.0,5.0,65,0.00,,CLR,0.00,622.00,VWS V14.01,2013-08-24 13:18:00,
2013-08-24 09:23:00,65.3,53.7,30.31,NNE,24,1.0,4.0,66,0.00,,CLR,0.00,640.00,VWS V14.01,2013-08-24 13:23:00,
2013-08-24 09:28:00,66.0,53.9,30.31,NW,315,0.0,6.0,65,0.00,,CLR,0.00,654.00,VWS V14.01,2013-08-24 13:28:00,
2013-08-24 09:33:00,66.8,54.2,30.31,NNE,32,1.0,4.0,64,0.00,,CLR,0.00,671.00,VWS V14.01,2013-08-24 13:33:00,
2013-08-24 09:38:00,67.5,54.5,30.32,North,5,0.0,4.0,63,0.00,,CLR,0.00,684.00,VWS V14.01,2013-08-24 13:38:00,
2013-08-24 09:43:00,68.0,54.5,30.32,NE,40,0.0,3.0,62,0.00,,CLR,0.00,777.00,VWS V14.01,2013-08-24 13:43:00,
2013-08-24 09:48:00,68.1,53.7,30.32,ENE,70,0.0,6.0,60,0.00,,CLR,0.00,796.00,VWS V14.01,2013-08-24 13:48:00,
2013-08-24 09:53:00,68.4,52.6,30.32,NE,45,0.0,4.0,57,0.00,,CLR,0.00,812.00,VWS V14.01,2013-08-24 13:53:00,
2013-08-24 09:58:00,68.5,52.7,30.32,NNE,22,0.0,5.0,57,0.00,,CLR,0.00,835.00,VWS V14.01,2013-08-24 13:58:00,
2013-08-24 10:03:00,68.7,52.9,30.32,NW,318,4.0,4.0,57,0.00,,CLR,0.00,846.00,VWS V14.01,2013-08-24 14:03:00,
2013-08-24 10:08:00,69.0,54.1,30.32,ENE,59,2.0,4.0,59,0.00,,CLR,0.00,856.00,VWS V14.01,2013-08-24 14:08:00,
2013-08-24 10:13:00,69.5,53.6,30.32,NE,52,0.0,2.0,57,0.00,,CLR,0.00,861.00,VWS V14.01,2013-08-24 14:13:00,
2013-08-24 10:18:00,70.1,54.7,30.32,NE,48,3.0,3.0,58,0.00,,CLR,0.00,884.00,VWS V14.01,2013-08-24 14:18:00,
2013-08-24 10:23:00,70.5,55.0,30.32,NNE,16,3.0,3.0,58,0.00,,CLR,0.00,828.00,VWS V14.01,2013-08-24 14:23:00,
2013-08-24 10:28:00,70.7,54.7,30.32,NNE,16,6.0,7.0,57,0.00,,CLR,0.00,812.00,VWS V14.01,2013-08-24 14:28:00,
2013-08-24 10:33:00,70.9,51.3,30.32,NE,39,1.0,5.0,50,0.00,,CLR,0.00,819.00,VWS V14.01,2013-08-24 14:33:00,
2013-08-24 10:38:00,71.2,53.2,30.32,NE,36,0.0,5.0,53,0.00,,CLR,0.00,828.00,VWS V14.01,2013-08-24 14:38:00,
2013-08-24 10:43:00,71.4,52.3,30.32,NNE,12,2.0,4.0,51,0.00,,CLR,0.00,835.00,VWS V14.01,2013-08-24 14:43:00,
2013-08-24 10:48:00,71.5,52.4,30.32,NE,47,2.0,5.0,51,0.00,,CLR,0.00,849.00,VWS V14.01,2013-08-24 14:48:00,
2013-08-24 10:53:00,71.6,51.5,30.32,ENE,72,1.0,4.0,49,0.00,,CLR,0.00,858.00,VWS V14.01,2013-08-24 14:53:00,
2013-08-24 10:58:00,71.4,51.8,30.32,ENE,74,2.0,4.0,50,0.00,,CLR,0.00,867.00,VWS V14.01,2013-08-24 14:58:00,
2013-08-24 11:03:00,71.4,51.3,30.32,NE,44,0.0,4.0,49,0.00,,CLR,0.00,874.00,VWS V14.01,2013-08-24 15:03:00,
2013-08-24 11:08:00,71.8,51.6,30.32,NE,51,0.0,4.0,49,0.00,,CLR,0.00,879.00,VWS V14.01,2013-08-24 15:08:00,
2013-08-24 11:13:00,71.9,50.6,30.31,ENE,66,1.0,4.0,47,0.00,,CLR,0.00,884.00,VWS V14.01,2013-08-24 15:13:00,
2013-08-24 11:18:00,71.9,49.4,30.31,NE,37,0.0,7.0,45,0.00,,CLR,0.00,889.00,VWS V14.01,2013-08-24 15:18:00,
2013-08-24 11:23:00,72.2,53.1,30.31,NNW,338,0.0,4.0,51,0.00,,CLR,0.00,895.00,VWS V14.01,2013-08-24 15:23:00,
2013-08-24 11:28:00,72.8,55.2,30.31,SW,222,2.0,4.0,54,0.00,,CLR,0.00,902.00,VWS V14.01,2013-08-24 15:28:00,
2013-08-24 11:33:00,73.1,50.5,30.31,ENE,78,0.0,2.0,45,0.00,,CLR,0.00,909.00,VWS V14.01,2013-08-24 15:33:00,
2013-08-24 11:38:00,72.9,52.1,30.32,ENE,78,0.0,2.0,48,0.00,,CLR,0.00,907.00,VWS V14.01,2013-08-24 15:38:00,
2013-08-24 11:43:00,72.9,50.9,30.31,ENE,77,0.0,1.0,46,0.00,,CLR,0.00,916.00,VWS V14.01,2013-08-24 15:43:00,
2013-08-24 11:48:00,73.1,51.7,30.31,ENE,65,3.0,3.0,47,0.00,,CLR,0.00,925.00,VWS V14.01,2013-08-24 15:48:00,
2013-08-24 11:53:00,73.5,52.6,30.31,ENE,61,2.0,5.0,48,0.00,,CLR,0.00,923.00,VWS V14.01,2013-08-24 15:53:00,
2013-08-24 11:59:00,73.4,50.2,30.31,East,86,0.0,9.0,44,0.00,,CLR,0.00,923.00,VWS V14.01,2013-08-24 15:59:00,
2013-08-24 12:04:00,73.4,52.5,30.31,ENE,71,0.0,3.0,48,0.00,,CLR,0.00,928.00,VWS V14.01,2013-08-24 16:04:00,
2013-08-24 12:09:00,73.6,52.2,30.31,WNW,300,0.0,5.0,47,0.00,,CLR,0.00,937.00,VWS V14.01,2013-08-24 16:09:00,
2013-08-24 12:14:00,73.5,50.3,30.31,NE,40,0.0,2.0,44,0.00,,CLR,0.00,937.00,VWS V14.01,2013-08-24 16:14:00,
2013-08-24 12:19:00,73.7,53.9,30.31,NW,323,1.0,6.0,50,0.00,,CLR,0.00,935.00,VWS V14.01,2013-08-24 16:19:00,
2013-08-24 12:24:00,74.1,52.0,30.31,North,355,0.0,4.0,46,0.00,,CLR,0.00,937.00,VWS V14.01,2013-08-24 16:24:00,
2013-08-24 12:29:00,73.5,50.9,30.31,SSW,202,0.0,6.0,45,0.00,,CLR,0.00,933.00,VWS V14.01,2013-08-24 16:29:00,
2013-08-24 12:34:00,73.2,50.0,30.31,NNW,334,3.0,3.0,44,0.00,,CLR,0.00,937.00,VWS V14.01,2013-08-24 16:34:00,
2013-08-24 12:39:00,73.7,52.8,30.31,WNW,298,2.0,4.0,48,0.00,,CLR,0.00,935.00,VWS V14.01,2013-08-24 16:39:00,
2013-08-24 12:44:00,74.4,52.3,30.31,NE,49,2.0,7.0,46,0.00,,CLR,0.00,937.00,VWS V14.01,2013-08-24 16:44:00,
2013-08-24 12:49:00,74.5,53.0,30.31,NE,38,5.0,7.0,47,0.00,,CLR,0.00,928.00,VWS V14.01,2013-08-24 16:49:00,
2013-08-24 12:54:00,74.2,51.5,30.31,East,82,1.0,5.0,45,0.00,,CLR,0.00,932.00,VWS V14.01,2013-08-24 16:54:00,
2013-08-24 12:59:00,74.5,51.8,30.31,NW,318,3.0,5.0,45,0.00,,CLR,0.00,928.00,VWS V14.01,2013-08-24 16:59:00,
2013-08-24 13:04:00,74.8,52.7,30.31,NE,42,1.0,3.0,46,0.00,,CLR,0.00,926.00,VWS V14.01,2013-08-24 17:04:00,
2013-08-24 13:09:00,75.0,52.8,30.31,ENE,65,0.0,4.0,46,0.00,,CLR,0.00,923.00,VWS V14.01,2013-08-24 17:09:00,
2013-08-24 13:14:00,74.8,53.8,30.31,NNE,15,4.0,5.0,48,0.00,,CLR,0.00,914.00,VWS V14.01,2013-08-24 17:14:00,
2013-08-24 13:19:00,74.7,52.6,30.31,NE,55,0.0,5.0,46,0.00,,CLR,0.00,916.00,VWS V14.01,2013-08-24 17:19:00,
2013-08-24 13:24:00,75.3,51.3,30.31,ESE,110,0.0,4.0,43,0.00,,CLR,0.00,918.00,VWS V14.01,2013-08-24 17:24:00,
2013-08-24 13:29:00,75.3,53.1,30.31,East,96,1.0,4.0,46,0.00,,CLR,0.00,911.00,VWS V14.01,2013-08-24 17:29:00,
2013-08-24 13:34:00,75.7,52.3,30.31,South,185,3.0,4.0,44,0.00,,CLR,0.00,905.00,VWS V14.01,2013-08-24 17:34:00,
2013-08-24 13:39:00,75.9,50.5,30.31,North,5,0.0,5.0,41,0.00,,CLR,0.00,900.00,VWS V14.01,2013-08-24 17:39:00,
2013-08-24 13:50:00,76.5,52.4,30.31,NNE,22,2.0,4.0,43,0.00,,,0.00,894.00,VWS V14.01,2013-08-24 17:50:00,
2013-08-24 14:03:00,76.7,52.5,30.30,NW,311,2.0,2.0,43,0.00,,,0.00,875.00,VWS V14.01,2013-08-24 18:03:00,
2013-08-24 14:08:00,76.6,51.8,30.30,North,11,0.0,4.0,42,0.00,,,0.00,867.00,VWS V14.01,2013-08-24 18:08:00,
2013-08-24 14:13:00,77.1,51.6,30.30,North,355,0.0,2.0,41,0.00,,,0.00,858.00,VWS V14.01,2013-08-24 18:13:00,
2013-08-24 14:18:00,77.1,50.9,30.30,NW,319,0.0,2.0,40,0.00,,CLR,0.00,849.00,VWS V14.01,2013-08-24 18:18:00,
2013-08-24 14:23:00,77.7,54.1,30.30,NW,320,0.0,2.0,44,0.00,,CLR,0.00,840.00,VWS V14.01,2013-08-24 18:23:00,
2013-08-24 14:28:00,77.4,51.9,30.30,NW,320,0.0,2.0,41,0.00,,CLR,0.00,833.00,VWS V14.01,2013-08-24 18:28:00,
2013-08-24 14:33:00,76.7,51.2,30.30,NNE,26,0.0,4.0,41,0.00,,CLR,0.00,823.00,VWS V14.01,2013-08-24 18:33:00,
2013-08-24 14:38:00,76.4,50.3,30.29,NNE,32,0.0,4.0,40,0.00,,CLR,0.00,817.00,VWS V14.01,2013-08-24 18:38:00,
2013-08-24 14:43:00,77.1,51.6,30.29,NE,39,0.0,3.0,41,0.00,,CLR,0.00,809.00,VWS V14.01,2013-08-24 18:43:00,
2013-08-24 14:48:00,77.6,52.1,30.29,NE,39,1.0,4.0,41,0.00,,CLR,0.00,800.00,VWS V14.01,2013-08-24 18:48:00,
2013-08-24 14:53:00,78.1,53.8,30.29,NE,39,0.0,1.0,43,0.00,,CLR,0.00,786.00,VWS V14.01,2013-08-24 18:53:00,
2013-08-24 14:58:00,78.1,52.5,30.29,NE,36,2.0,4.0,41,0.00,,CLR,0.00,775.00,VWS V14.01,2013-08-24 18:58:00,
2013-08-24 15:03:00,77.8,52.9,30.29,ESE,117,3.0,4.0,42,0.00,,CLR,0.00,768.00,VWS V14.01,2013-08-24 19:03:00,
2013-08-24 15:08:00,78.2,52.6,30.29,South,175,0.0,4.0,41,0.00,,CLR,0.00,765.00,VWS V14.01,2013-08-24 19:08:00,
2013-08-24 15:13:00,78.0,51.8,30.29,South,176,0.0,4.0,40,0.00,,CLR,0.00,759.00,VWS V14.01,2013-08-24 19:13:00,
2013-08-24 15:18:00,77.8,50.9,30.29,NNW,344,2.0,4.0,39,0.00,,CLR,0.00,733.00,VWS V14.01,2013-08-24 19:18:00,
2013-08-24 15:23:00,77.7,51.5,30.29,NNE,15,0.0,3.0,40,0.00,,CLR,0.00,712.00,VWS V14.01,2013-08-24 19:23:00,
2013-08-24 15:28:00,77.4,51.9,30.29,NE,49,2.0,4.0,41,0.00,,CLR,0.00,708.00,VWS V14.01,2013-08-24 19:28:00,
2013-08-24 15:33:00,77.1,50.3,30.29,SSW,201,2.0,3.0,39,0.00,,CLR,0.00,705.00,VWS V14.01,2013-08-24 19:33:00,
2013-08-24 15:38:00,77.1,52.9,30.29,ENE,70,0.0,3.0,43,0.00,,CLR,0.00,689.00,VWS V14.01,2013-08-24 19:38:00,
2013-08-24 15:43:00,77.1,50.9,30.29,ENE,70,0.0,1.0,40,0.00,,CLR,0.00,668.00,VWS V14.01,2013-08-24 19:43:00,
2013-08-24 15:48:00,77.3,51.8,30.29,ENE,62,0.0,1.0,41,0.00,,CLR,0.00,656.00,VWS V14.01,2013-08-24 19:48:00,
2013-08-24 15:53:00,77.6,50.0,30.29,NE,40,1.0,4.0,38,0.00,,CLR,0.00,643.00,VWS V14.01,2013-08-24 19:53:00,
2013-08-24 15:59:00,77.8,52.2,30.29,NE,40,0.0,4.0,41,0.00,,CLR,0.00,617.00,VWS V14.01,2013-08-24 19:59:00,
2013-08-24 16:04:00,77.8,52.2,30.29,SE,131,2.0,4.0,41,0.00,,CLR,0.00,596.00,VWS V14.01,2013-08-24 20:04:00,
2013-08-24 16:09:00,77.1,50.9,30.29,SE,132,0.0,4.0,40,0.00,,CLR,0.00,573.00,VWS V14.01,2013-08-24 20:09:00,
2013-08-24 16:14:00,77.0,54.7,30.29,SE,132,0.0,0.0,46,0.00,,CLR,0.00,582.00,VWS V14.01,2013-08-24 20:14:00,
2013-08-24 16:19:00,77.4,51.9,30.29,SE,132,0.0,0.0,41,0.00,,CLR,0.00,570.00,VWS V14.01,2013-08-24 20:19:00,
2013-08-24 16:24:00,77.4,53.2,30.29,SE,132,0.0,1.0,43,0.00,,CLR,0.00,554.00,VWS V14.01,2013-08-24 20:24:00,
2013-08-24 16:29:00,77.6,54.6,30.29,SE,132,0.0,1.0,45,0.00,,CLR,0.00,540.00,VWS V14.01,2013-08-24 20:29:00,
2013-08-24 16:34:00,77.6,53.4,30.28,NE,40,0.0,2.0,43,0.00,,CLR,0.00,527.00,VWS V14.01,2013-08-24 20:34:00,
2013-08-24 16:39:00,77.2,53.0,30.29,NE,40,0.0,2.0,43,0.00,,CLR,0.00,497.00,VWS V14.01,2013-08-24 20:39:00,
2013-08-24 16:44:00,77.0,51.5,30.29,NE,40,0.0,0.0,41,0.00,,CLR,0.00,65.00,VWS V14.01,2013-08-24 20:44:00,
2013-08-24 16:49:00,76.5,53.0,30.29,NE,40,0.0,2.0,44,0.00,,CLR,0.00,214.00,VWS V14.01,2013-08-24 20:49:00,
2013-08-24 16:54:00,75.9,51.8,30.29,NNE,17,0.0,3.0,43,0.00,,CLR,0.00,132.00,VWS V14.01,2013-08-24 20:54:00,
2013-08-24 16:59:00,75.5,50.8,30.29,North,5,0.0,3.0,42,0.00,,CLR,0.00,105.00,VWS V14.01,2013-08-24 20:59:00,
2013-08-24 17:04:00,75.2,51.8,30.29,North,5,0.0,3.0,44,0.00,,CLR,0.00,95.00,VWS V14.01,2013-08-24 21:04:00,
2013-08-24 17:09:00,75.1,52.9,30.28,North,5,0.0,3.0,46,0.00,,CLR,0.00,98.00,VWS V14.01,2013-08-24 21:09:00,
2013-08-24 17:14:00,75.1,52.3,30.28,North,5,0.0,0.0,45,0.00,,CLR,0.00,178.00,VWS V14.01,2013-08-24 21:14:00,
2013-08-24 17:19:00,75.1,51.7,30.28,North,5,0.0,0.0,44,0.00,,CLR,0.00,86.00,VWS V14.01,2013-08-24 21:19:00,
2013-08-24 17:23:00,75.0,52.8,30.28,NE,42,0.0,3.0,46,0.00,,CLR,0.00,58.00,VWS V14.01,2013-08-24 21:23:00,
2013-08-24 17:28:00,74.7,52.6,30.28,NE,51,0.0,4.0,46,0.00,,CLR,0.00,56.00,VWS V14.01,2013-08-24 21:28:00,
2013-08-24 17:33:00,74.3,51.0,30.28,NE,51,0.0,2.0,44,0.00,,CLR,0.00,77.00,VWS V14.01,2013-08-24 21:33:00,
2013-08-24 17:38:00,74.2,53.3,30.28,NE,51,0.0,2.0,48,0.00,,CLR,0.00,37.00,VWS V14.01,2013-08-24 21:38:00,
2013-08-24 17:43:00,74.0,52.5,30.28,NE,51,0.0,2.0,47,0.00,,CLR,0.00,74.00,VWS V14.01,2013-08-24 21:43:00,
2013-08-24 17:48:00,73.8,53.5,30.28,NE,51,0.0,2.0,49,0.00,,CLR,0.00,33.00,VWS V14.01,2013-08-24 21:48:00,
2013-08-24 17:53:00,73.5,52.1,30.28,NE,51,0.0,0.0,47,0.00,,CLR,0.00,32.00,VWS V14.01,2013-08-24 21:53:00,
2013-08-24 17:58:00,73.3,53.0,30.28,NE,51,0.0,1.0,49,0.00,,CLR,0.00,30.00,VWS V14.01,2013-08-24 21:58:00,
2013-08-24 18:03:00,73.1,52.8,30.28,NE,51,0.0,0.0,49,0.00,,CLR,0.00,30.00,VWS V14.01,2013-08-24 22:03:00,
2013-08-24 18:08:00,72.9,54.3,30.28,NE,51,0.0,1.0,52,0.00,,CLR,0.00,28.00,VWS V14.01,2013-08-24 22:08:00,
2013-08-24 18:13:00,72.6,53.5,30.28,NE,51,0.0,0.0,51,0.00,,CLR,0.00,26.00,VWS V14.01,2013-08-24 22:13:00,
2013-08-24 18:18:00,72.4,53.8,30.28,NE,51,0.0,0.0,52,0.00,,CLR,0.00,25.00,VWS V14.01,2013-08-24 22:18:00,
2013-08-24 18:23:00,72.1,54.6,30.28,NE,51,0.0,0.0,54,0.00,,CLR,0.00,25.00,VWS V14.01,2013-08-24 22:23:00,
2013-08-24 18:28:00,71.8,54.3,30.28,NE,51,0.0,0.0,54,0.00,,CLR,0.00,23.00,VWS V14.01,2013-08-24 22:28:00,
2013-08-24 18:33:00,71.5,54.0,30.28,NE,51,0.0,0.0,54,0.00,,CLR,0.00,21.00,VWS V14.01,2013-08-24 22:33:00,
2013-08-24 18:38:00,71.3,53.8,30.28,NE,51,0.0,1.0,54,0.00,,CLR,0.00,21.00,VWS V14.01,2013-08-24 22:38:00,
2013-08-24 18:43:00,71.1,53.6,30.28,NE,51,0.0,0.0,54,0.00,,CLR,0.00,19.00,VWS V14.01,2013-08-24 22:43:00,
2013-08-24 18:48:00,70.9,54.0,30.28,NE,51,0.0,0.0,55,0.00,,CLR,0.00,18.00,VWS V14.01,2013-08-24 22:48:00,
2013-08-24 18:53:00,70.6,53.2,30.28,NE,51,0.0,0.0,54,0.00,,CLR,0.00,16.00,VWS V14.01,2013-08-24 22:53:00,
2013-08-24 18:58:00,70.3,53.4,30.28,NE,51,0.0,0.0,55,0.00,,CLR,0.00,14.00,VWS V14.01,2013-08-24 22:58:00,
2013-08-24 19:03:00,70.0,53.6,30.28,NE,51,0.0,0.0,56,0.00,,CLR,0.00,12.00,VWS V14.01,2013-08-24 23:03:00,
2013-08-24 19:08:00,69.6,53.2,30.28,NE,51,0.0,0.0,56,0.00,,CLR,0.00,11.00,VWS V14.01,2013-08-24 23:08:00,
2013-08-24 19:13:00,69.2,53.3,30.28,NE,51,0.0,0.0,57,0.00,,CLR,0.00,11.00,VWS V14.01,2013-08-24 23:13:00,
2013-08-24 19:18:00,68.8,53.0,30.28,NE,51,0.0,0.0,57,0.00,,CLR,0.00,7.00,VWS V14.01,2013-08-24 23:18:00,
2013-08-24 19:23:00,68.3,52.5,30.28,NE,51,0.0,0.0,57,0.00,,CLR,0.00,7.00,VWS V14.01,2013-08-24 23:23:00,
2013-08-24 19:28:00,67.9,53.1,30.29,NE,51,0.0,0.0,59,0.00,,CLR,0.00,0.00,VWS V14.01,2013-08-24 23:28:00,
2013-08-24 19:33:00,67.4,52.1,30.29,NE,51,0.0,0.0,58,0.00,,CLR,0.00,0.00,VWS V14.01,2013-08-24 23:33:00,
2013-08-24 19:38:00,66.9,53.5,30.29,NE,51,0.0,0.0,62,0.00,,CLR,0.00,0.00,VWS V14.01,2013-08-24 23:38:00,
2013-08-24 19:43:00,66.4,53.0,30.29,NE,51,0.0,0.0,62,0.00,,CLR,0.00,0.00,VWS V14.01,2013-08-24 23:43:00,
2013-08-24 19:48:00,66.0,53.1,30.29,NE,51,0.0,0.0,63,0.00,,CLR,0.00,0.00,VWS V14.01,2013-08-24 23:48:00,
2013-08-24 19:53:00,65.7,52.8,30.29,NE,51,0.0,0.0,63,0.00,,CLR,0.00,0.00,VWS V14.01,2013-08-24 23:53:00,
2013-08-24 19:58:00,65.3,52.8,30.30,NE,51,0.0,0.0,64,0.00,,CLR,0.00,0.00,VWS V14.01,2013-08-24 23:58:00,
2013-08-24 20:03:00,65.0,53.8,30.30,NE,51,0.0,0.0,67,0.00,,CLR,0.00,0.00,VWS V14.01,2013-08-25 00:03:00,
2013-08-24 20:08:00,64.7,53.9,30.30,NE,51,0.0,0.0,68,0.00,,CLR,0.00,0.00,VWS V14.01,2013-08-25 00:08:00,
2013-08-24 20:13:00,64.3,53.5,30.30,NE,51,0.0,0.0,68,0.00,,CLR,0.00,0.00,VWS V14.01,2013-08-25 00:13:00,
2013-08-24 20:18:00,64.0,53.6,30.31,NE,51,0.0,0.0,69,0.00,,CLR,0.00,0.00,VWS V14.01,2013-08-25 00:18:00,
2013-08-24 20:23:00,63.7,54.5,30.31,NE,51,0.0,0.0,72,0.00,,CLR,0.00,0.00,VWS V14.01,2013-08-25 00:23:00,
2013-08-24 20:28:00,63.4,53.8,30.31,NE,51,0.0,0.0,71,0.00,,CLR,0.00,0.00,VWS V14.01,2013-08-25 00:28:00,
2013-08-24 20:33:00,63.1,52.8,30.31,NE,51,0.0,0.0,69,0.00,,CLR,0.00,0.00,VWS V14.01,2013-08-25 00:33:00,
2013-08-24 20:38:00,62.9,52.6,30.31,NE,51,0.0,0.0,69,0.00,,CLR,0.00,0.00,VWS V14.01,2013-08-25 00:38:00,
2013-08-24 20:43:00,62.7,55.0,30.31,NE,51,0.0,0.0,76,0.00,,CLR,0.00,0.00,VWS V14.01,2013-08-25 00:43:00,
2013-08-24 20:48:00,62.6,54.9,30.32,NE,51,0.0,0.0,76,0.00,,CLR,0.00,0.00,VWS V14.01,2013-08-25 00:48:00,
2013-08-24 20:53:00,62.3,54.7,30.32,NE,51,0.0,0.0,76,0.00,,CLR,0.00,0.00,VWS V14.01,2013-08-25 00:53:00,
2013-08-24 20:58:00,62.1,54.8,30.32,NE,51,0.0,0.0,77,0.00,,CLR,0.00,0.00,VWS V14.01,2013-08-25 00:58:00,
2013-08-24 21:03:00,61.9,55.0,30.32,NE,51,0.0,0.0,78,0.00,,CLR,0.00,0.00,VWS V14.01,2013-08-25 01:03:00,
2013-08-24 21:08:00,61.8,54.9,30.32,NE,51,0.0,0.0,78,0.00,,CLR,0.00,0.00,VWS V14.01,2013-08-25 01:08:00,
2013-08-24 21:13:00,61.6,54.3,30.32,NE,51,0.0,0.0,77,0.00,,CLR,0.00,0.00,VWS V14.01,2013-08-25 01:13:00,
2013-08-24 21:18:00,61.3,53.0,30.32,NE,51,0.0,0.0,74,0.00,,CLR,0.00,0.00,VWS V14.01,2013-08-25 01:18:00,
2013-08-24 21:23:00,61.1,52.0,30.32,NE,51,0.0,0.0,72,0.00,,CLR,0.00,0.00,VWS V14.01,2013-08-25 01:23:00,
2013-08-24 21:28:00,61.0,51.9,30.32,NE,51,0.0,0.0,72,0.00,,CLR,0.00,0.00,VWS V14.01,2013-08-25 01:28:00,
2013-08-24 21:33:00,60.9,52.6,30.32,NE,51,0.0,0.0,74,0.00,,CLR,0.00,0.00,VWS V14.01,2013-08-25 01:33:00,
2013-08-24 21:38:00,60.9,52.6,30.32,NE,51,0.0,0.0,74,0.00,,CLR,0.00,0.00,VWS V14.01,2013-08-25 01:38:00,
2013-08-24 21:43:00,60.7,51.6,30.33,NE,51,0.0,0.0,72,0.00,,CLR,0.00,0.00,VWS V14.01,2013-08-25 01:43:00,
2013-08-24 21:48:00,60.5,52.9,30.33,NE,51,0.0,0.0,76,0.00,,CLR,0.00,0.00,VWS V14.01,2013-08-25 01:48:00,
2013-08-24 21:53:00,60.4,52.5,30.33,NE,51,0.0,0.0,75,0.00,,CLR,0.00,0.00,VWS V14.01,2013-08-25 01:53:00,
2013-08-24 21:58:00,60.2,51.2,30.33,NE,51,0.0,0.0,72,0.00,,CLR,0.00,0.00,VWS V14.01,2013-08-25 01:58:00,
2013-08-24 22:03:00,60.0,51.0,30.33,NE,51,0.0,0.0,72,0.00,,CLR,0.00,0.00,VWS V14.01,2013-08-25 02:03:00,
2013-08-24 22:08:00,59.8,50.8,30.33,NE,51,0.0,0.0,72,0.00,,CLR,0.00,0.00,VWS V14.01,2013-08-25 02:08:00,
2013-08-24 22:13:00,59.8,51.1,30.33,NE,51,0.0,0.0,73,0.00,,CLR,0.00,0.00,VWS V14.01,2013-08-25 02:13:00,
2013-08-24 22:18:00,59.9,51.6,30.33,NE,51,0.0,0.0,74,0.00,,CLR,0.00,0.00,VWS V14.01,2013-08-25 02:18:00,
2013-08-24 22:23:00,59.8,51.5,30.33,NE,51,0.0,0.0,74,0.00,,CLR,0.00,0.00,VWS V14.01,2013-08-25 02:23:00,
2013-08-24 22:28:00,59.8,52.9,30.33,NE,51,0.0,0.0,78,0.00,,CLR,0.00,0.00,VWS V14.01,2013-08-25 02:28:00,
2013-08-24 22:33:00,59.6,53.1,30.33,NE,51,0.0,0.0,79,0.00,,CLR,0.00,0.00,VWS V14.01,2013-08-25 02:33:00,
2013-08-24 22:38:00,59.4,52.9,30.33,NE,51,0.0,0.0,79,0.00,,CLR,0.00,0.00,VWS V14.01,2013-08-25 02:38:00,
2013-08-24 22:43:00,59.0,52.5,30.33,NE,51,0.0,0.0,79,0.00,,CLR,0.00,0.00,VWS V14.01,2013-08-25 02:43:00,
2013-08-24 22:48:00,59.0,52.2,30.33,NE,51,0.0,0.0,78,0.00,,CLR,0.00,0.00,VWS V14.01,2013-08-25 02:48:00,
2013-08-24 22:53:00,58.7,52.2,30.33,NE,51,0.0,0.0,79,0.00,,CLR,0.00,0.00,VWS V14.01,2013-08-25 02:53:00,
2013-08-24 22:58:00,58.4,51.9,30.33,NE,51,0.0,0.0,79,0.00,,CLR,0.00,0.00,VWS V14.01,2013-08-25 02:58:00,
2013-08-24 23:03:00,58.1,51.6,30.33,NE,51,0.0,0.0,79,0.00,,CLR,0.00,0.00,VWS V14.01,2013-08-25 03:03:00,
2013-08-24 23:08:00,58.0,51.9,30.33,NE,51,0.0,0.0,80,0.00,,CLR,0.00,0.00,VWS V14.01,2013-08-25 03:08:00,
2013-08-24 23:13:00,57.9,52.1,30.33,NE,51,0.0,0.0,81,0.00,,CLR,0.00,0.00,VWS V14.01,2013-08-25 03:13:00,
2013-08-24 23:18:00,57.8,52.3,30.33,NE,51,0.0,0.0,82,0.00,,CLR,0.00,0.00,VWS V14.01,2013-08-25 03:18:00,
2013-08-24 23:23:00,57.6,52.2,30.33,NE,51,0.0,0.0,82,0.00,,CLR,0.00,0.00,VWS V14.01,2013-08-25 03:23:00,
2013-08-24 23:28:00,57.5,52.4,30.33,NE,51,0.0,0.0,83,0.00,,CLR,0.00,0.00,VWS V14.01,2013-08-25 03:28:00,
2013-08-24 23:33:00,57.3,52.2,30.33,NE,51,0.0,0.0,83,0.00,,CLR,0.00,0.00,VWS V14.01,2013-08-25 03:33:00,
2013-08-24 23:38:00,57.1,52.6,30.33,NE,51,0.0,0.0,85,0.00,,CLR,0.00,0.00,VWS V14.01,2013-08-25 03:38:00,
2013-08-24 23:43:00,56.9,52.4,30.33,NE,51,0.0,0.0,85,0.00,,CLR,0.00,0.00,VWS V14.01,2013-08-25 03:43:00,
2013-08-24 23:48:00,56.8,52.7,30.34,NE,51,0.0,0.0,86,0.00,,CLR,0.00,0.00,VWS V14.01,2013-08-25 03:48:00,
2013-08-24 23:53:00,56.6,52.5,30.34,NE,51,0.0,0.0,86,0.00,,CLR,0.00,0.00,VWS V14.01,2013-08-25 03:53:00,
2013-08-24 23:58:00,56.5,52.4,30.33,NE,51,0.0,0.0,86,0.00,,CLR,0.00,0.00,VWS V14.01,2013-08-25 03:58:00,